• In Hungary
  • List of Countries
  • For 7 days
  • Water Temperature
  • Satellite Maps
  • Weather Map
  • News
  • Weather Widgets
  • user-avatar
    Login

    Hourly Weather San José de Galipán

    Today, 21 October, Saturday

    Time Temperature Precipitation Wind Pressure Humidity
    00:00 +18°C° 0.1 mm 4 mps 655 mmHg 96%
    01:00 +18°C° 0.1 mm 4 mps 655 mmHg 96%
    02:00 +18°C° 0 mm 4 mps 655 mmHg 96%
    03:00 +18°C° 0 mm 4 mps 655 mmHg 95%
    04:00 +18°C° 0 mm 4 mps 655 mmHg 95%
    05:00 +18°C° 0 mm 4 mps 655 mmHg 95%
    06:00 +18°C° 0 mm 4 mps 655 mmHg 93%
    07:00 +19°C° 0 mm 4 mps 656 mmHg 91%
    08:00 +19°C° 0 mm 4 mps 656 mmHg 89%
    09:00 +21°C° 0.2 mm 4 mps 657 mmHg 84%
    10:00 +22°C° 0.2 mm 4 mps 657 mmHg 78%
    11:00 +23°C° 0.2 mm 4 mps 658 mmHg 73%
    12:00 +23°C° 0.7 mm 4 mps 657 mmHg 77%
    13:00 +23°C° 0.7 mm 4 mps 657 mmHg 81%
    14:00 +22°C° 0.7 mm 5 mps 656 mmHg 86%
    15:00 +22°C° 0.9 mm 5 mps 656 mmHg 87%
    16:00 +22°C° 0.9 mm 5 mps 656 mmHg 88%
    17:00 +21°C° 0.9 mm 5 mps 655 mmHg 89%
    18:00 +20°C° 0.1 mm 5 mps 656 mmHg 91%
    19:00 +20°C° 0.1 mm 5 mps 656 mmHg 93%
    20:00 +19°C° 0.1 mm 5 mps 656 mmHg 95%
    21:00 +19°C° 0.1 mm 5 mps 656 mmHg 95%
    22:00 +19°C° 0.1 mm 5 mps 657 mmHg 95%
    23:00 +19°C° 0.1 mm 5 mps 657 mmHg 96%

    Tomorrow, 22 October, Sunday

    Time Temperature Precipitation Wind Pressure Humidity
    00:00 +19°C° 0.1 mm 4 mps 657 mmHg 96%
    01:00 +19°C° 0.1 mm 4 mps 656 mmHg 96%
    02:00 +19°C° 0.1 mm 4 mps 656 mmHg 96%
    03:00 +19°C° 0.2 mm 4 mps 656 mmHg 96%
    04:00 +19°C° 0.2 mm 4 mps 656 mmHg 96%
    05:00 +18°C° 0.2 mm 4 mps 656 mmHg 96%
    06:00 +19°C° 0.1 mm 4 mps 656 mmHg 94%
    07:00 +19°C° 0.1 mm 4 mps 657 mmHg 93%
    08:00 +20°C° 0.1 mm 5 mps 657 mmHg 92%
    09:00 +21°C° 0 mm 5 mps 658 mmHg 82%
    10:00 +23°C° 0 mm 5 mps 658 mmHg 73%
    11:00 +26°C° 0 mm 5 mps 659 mmHg 64%
    12:00 +26°C° 0 mm 5 mps 658 mmHg 61%
    13:00 +27°C° 0 mm 5 mps 657 mmHg 58%
    14:00 +27°C° 0 mm 5 mps 657 mmHg 56%
    15:00 +26°C° 0 mm 5 mps 656 mmHg 60%
    16:00 +26°C° 0 mm 5 mps 656 mmHg 64%
    17:00 +25°C° 0 mm 5 mps 656 mmHg 69%
    18:00 +22°C° 0 mm 5 mps 656 mmHg 76%
    19:00 +21°C° 0 mm 5 mps 656 mmHg 83%
    20:00 +19°C° 0 mm 4 mps 656 mmHg 90%
    21:00 +19°C° 0.1 mm 4 mps 656 mmHg 92%
    22:00 +19°C° 0.1 mm 4 mps 657 mmHg 93%
    23:00 +19°C° 0.1 mm 4 mps 657 mmHg 94%

    Day after tomorrow, 23 October, Monday

    Time Temperature Precipitation Wind Pressure Humidity
    00:00 +19°C° 0.1 mm 4 mps 657 mmHg 95%
    01:00 +19°C° 0.1 mm 4 mps 656 mmHg 95%
    02:00 +19°C° 0.1 mm 4 mps 656 mmHg 96%
    03:00 +19°C° 0.1 mm 4 mps 656 mmHg 96%
    04:00 +18°C° 0.1 mm 3 mps 656 mmHg 95%
    05:00 +18°C° 0.1 mm 3 mps 655 mmHg 95%
    06:00 +19°C° 0 mm 4 mps 656 mmHg 93%
    07:00 +20°C° 0 mm 4 mps 656 mmHg 90%
    08:00 +20°C° 0 mm 4 mps 657 mmHg 88%
    09:00 +22°C° 0 mm 4 mps 658 mmHg 78%
    10:00 +25°C° 0 mm 4 mps 658 mmHg 68%
    11:00 +26°C° 0 mm 4 mps 658 mmHg 58%
    12:00 +26°C° 0.4 mm 4 mps 658 mmHg 63%
    13:00 +26°C° 0.4 mm 4 mps 657 mmHg 67%
    14:00 +26°C° 0.4 mm 4 mps 656 mmHg 71%
    15:00 +25°C° 0.8 mm 4 mps 655 mmHg 73%
    16:00 +23°C° 0.8 mm 4 mps 655 mmHg 76%
    17:00 +23°C° 0.8 mm 4 mps 654 mmHg 78%
    18:00 +22°C° 0.2 mm 4 mps 655 mmHg 83%
    19:00 +20°C° 0.2 mm 4 mps 655 mmHg 88%
    20:00 +19°C° 0.2 mm 4 mps 655 mmHg 93%
    21:00 +19°C° 0.1 mm 4 mps 655 mmHg 94%
    22:00 +19°C° 0.1 mm 4 mps 656 mmHg 95%
    23:00 +19°C° 0.1 mm 4 mps 656 mmHg 96%

    24 October, Tuesday

    Time Temperature Precipitation Wind Pressure Humidity
    00:00 +19°C° 0.1 mm 4 mps 656 mmHg 96%
    01:00 +19°C° 0.1 mm 4 mps 655 mmHg 96%
    02:00 +19°C° 0.1 mm 4 mps 655 mmHg 96%
    03:00 +19°C° 0 mm 3 mps 655 mmHg 96%
    04:00 +18°C° 0 mm 3 mps 655 mmHg 96%
    05:00 +18°C° 0 mm 3 mps 655 mmHg 96%
    06:00 +19°C° 0.1 mm 3 mps 655 mmHg 94%
    07:00 +19°C° 0.1 mm 3 mps 656 mmHg 92%
    08:00 +20°C° 0.1 mm 3 mps 656 mmHg 90%
    09:00 +21°C° 0 mm 4 mps 657 mmHg 84%
    10:00 +23°C° 0 mm 4 mps 657 mmHg 77%
    11:00 +25°C° 0 mm 4 mps 657 mmHg 71%
    12:00 +25°C° 1.4 mm 4 mps 656 mmHg 73%
    13:00 +25°C° 1.4 mm 4 mps 656 mmHg 76%
    14:00 +25°C° 1.4 mm 4 mps 655 mmHg 79%
    15:00 +23°C° 2.5 mm 4 mps 654 mmHg 81%
    16:00 +23°C° 2.5 mm 4 mps 654 mmHg 84%
    17:00 +22°C° 2.5 mm 4 mps 654 mmHg 86%
    18:00 +21°C° 1.3 mm 4 mps 654 mmHg 89%
    19:00 +20°C° 1.3 mm 4 mps 655 mmHg 92%
    20:00 +19°C° 1.3 mm 4 mps 655 mmHg 95%
    21:00 +19°C° 0.1 mm 4 mps 655 mmHg 95%
    22:00 +19°C° 0.1 mm 4 mps 655 mmHg 96%
    23:00 +19°C° 0.1 mm 4 mps 656 mmHg 96%

    25 October, Wednesday

    Time Temperature Precipitation Wind Pressure Humidity
    00:00 +19°C° 0.1 mm 4 mps 655 mmHg 96%
    01:00 +19°C° 0.1 mm 4 mps 655 mmHg 96%
    02:00 +19°C° 0.1 mm 3 mps 655 mmHg 96%
    03:00 +19°C° 0.1 mm 3 mps 655 mmHg 96%
    04:00 +19°C° 0.1 mm 3 mps 655 mmHg 96%
    05:00 +18°C° 0.1 mm 3 mps 655 mmHg 96%
    06:00 +19°C° 0 mm 3 mps 655 mmHg 94%
    07:00 +20°C° 0 mm 3 mps 656 mmHg 92%
    08:00 +20°C° 0 mm 3 mps 657 mmHg 90%
    09:00 +22°C° 0 mm 3 mps 657 mmHg 81%
    10:00 +25°C° 0 mm 3 mps 657 mmHg 71%
    11:00 +27°C° 0 mm 3 mps 658 mmHg 62%
    12:00 +27°C° 0.8 mm 3 mps 657 mmHg 68%
    13:00 +26°C° 0.8 mm 3 mps 656 mmHg 74%
    14:00 +25°C° 0.8 mm 3 mps 655 mmHg 80%
    15:00 +25°C° 1.8 mm 3 mps 655 mmHg 83%
    16:00 +24°C° 1.8 mm 3 mps 655 mmHg 86%
    17:00 +23°C° 1.8 mm 2 mps 654 mmHg 89%
    18:00 +21°C° 1 mm 2 mps 655 mmHg 90%
    19:00 +20°C° 1 mm 2 mps 655 mmHg 92%
    20:00 +19°C° 1 mm 2 mps 655 mmHg 93%
    21:00 +19°C° 0.7 mm 2 mps 656 mmHg 94%
    22:00 +19°C° 0.7 mm 2 mps 656 mmHg 95%
    23:00 +19°C° 0.7 mm 2 mps 656 mmHg 96%

    26 October, Thursday

    Time Temperature Precipitation Wind Pressure Humidity
    00:00 +18°C° 0.6 mm 2 mps 656 mmHg 96%
    01:00 +18°C° 0.6 mm 2 mps 655 mmHg 96%
    02:00 +18°C° 0.6 mm 3 mps 655 mmHg 96%
    03:00 +18°C° 0.2 mm 3 mps 655 mmHg 96%
    04:00 +18°C° 0.2 mm 2 mps 655 mmHg 96%
    05:00 +18°C° 0.2 mm 2 mps 655 mmHg 96%
    06:00 +19°C° 0.2 mm 2 mps 656 mmHg 94%
    07:00 +19°C° 0.2 mm 2 mps 656 mmHg 93%
    08:00 +20°C° 0.2 mm 2 mps 657 mmHg 91%
    09:00 +23°C° 0 mm 2 mps 657 mmHg 81%
    10:00 +25°C° 0 mm 2 mps 658 mmHg 71%
    11:00 +27°C° 0 mm 2 mps 658 mmHg 62%
    12:00 +26°C° 0.9 mm 3 mps 657 mmHg 69%
    13:00 +26°C° 0.9 mm 3 mps 656 mmHg 76%
    14:00 +25°C° 0.9 mm 3 mps 655 mmHg 84%
    15:00 +24°C° 1.5 mm 3 mps 655 mmHg 86%
    16:00 +22°C° 1.5 mm 3 mps 655 mmHg 87%
    17:00 +22°C° 1.5 mm 3 mps 654 mmHg 89%
    18:00 +21°C° 1 mm 3 mps 655 mmHg 91%
    19:00 +20°C° 1 mm 3 mps 655 mmHg 93%
    20:00 +19°C° 1 mm 3 mps 655 mmHg 95%
    21:00 +19°C° 0.1 mm 3 mps 656 mmHg 96%
    22:00 +19°C° 0.1 mm 3 mps 656 mmHg 96%
    23:00 +19°C° 0.1 mm 3 mps 656 mmHg 96%
    Show more